Regional Weather Roundup
Issued by NWS

Home | Current Version | Previous Version | Text Only | Print | Product List | Glossary On
Versions: 1 2 3 4 5 6 7 8 9 10 11 12 13 14 15 16 17 18 19 20 21 22 23 24 25 26 27 28 29 30 31 32 33 34 35 36 37 38 39 40 41 42 43 44 45 46 47 48 49 50
171
ASHW40 PHFO 121212
RWRHI

WEATHER ROUNDUP FOR HAWAII
NATIONAL WEATHER SERVICE HONOLULU HI
200 AM HST TUE DEC 12 2017

THIS IS AN AUTOMATED REPORT THAT HAS NOT BEEN QUALITY CONTROLLED.

NOTE..."FAIR" INDICATES FEW OR NO CLOUDS BELOW 12,000 FEET WITH NO
SIGNIFICANT WEATHER AND/OR OBSTRUCTIONS TO VISIBILITY.

* - THESE SITES REPORT LIMITED FIELDS
# - BUOY DATA PROVIDED BY PACIFIC ISLANDS OCEAN OBSERVING SYSTEM.

HIZ001>004-121300-
KAUAI-NIIHAU-

CITY           SKY/WX    TMP DP  RH WIND       PRES   REMARKS
LIHUE APT      CLEAR     68  68 100 SW9       29.93S
PORT ALLEN*      N/A     75 N/A N/A W13         N/A
POIPU*           N/A     68 N/A N/A NW3         N/A
PRINCEVILLE*   NOT AVBL
KOKOLE POINT*  NOT AVBL
MOLOAA DAIRY*    N/A     66  64  94 NW2G8       N/A
WAIMEA HTS*    NOT AVBL
PUU OPAE*      NOT AVBL
PUU LUA*       NOT AVBL
MAKAHA RIDGE*  NOT AVBL
$$

HIZ005>011-121300-
OAHU-

CITY           SKY/WX    TMP DP  RH WIND       PRES   REMARKS
HONOLULU       PTCLDY    77  67  71 SW12      29.93F
KALAELOA       PTCLDY    75  68  78 SW10      29.95F
KANEOHE MCB    CLOUDY    76  68  76 S7        29.90F
WHEELER FIELD  MOCLDY    69  68  97 CALM      29.97F
BELLOWS*       NOT AVBL
KAHUKU*        NOT AVBL
WHEELER*       NOT AVBL
WAIANAE HARBOR NOT AVBL
DILLINGHAM*    NOT AVBL
KAHUKU TRN*      N/A     81  75  83 NE5G12      N/A
KAWAILOA*        N/A     66  64  94 S3G9        N/A
KII*             N/A     66  64  94 S1          N/A
MAKUA RANGE*     N/A     75  66  73 E8G15       N/A
OAHU FOREST NW NOT AVBL
SCHOFIELD BRK*   N/A     72  63  73 MISG        N/A
SCHOFIELD S*   NOT AVBL
WAIANAE VLY*   NOT AVBL
KUAOKALA*      NOT AVBL
HONOULIUULI*   NOT AVBL
MOKUOLOE IS*   NOT AVBL
PALEHUA*       NOT AVBL
WAIAWA PHB*    NOT AVBL
$$

HIZ012>013-121300-
MOLOKAI-

CITY           SKY/WX    TMP DP  RH WIND       PRES   REMARKS
MOLOKAI AIRPT  PTCLDY    73  65  75 S13       29.96S
KALAUPAPA      NOT AVBL
MAKAPULAPAI*   NOT AVBL
MOLOKAI 1*     NOT AVBL
PUU ALII*      NOT AVBL
$$

HIZ016-121300-
KAHOOLAWE-

CITY           SKY/WX    TMP DP  RH WIND       PRES   REMARKS
KAHOOLAWE*     NOT AVBL
HAKIOAWA*      NOT AVBL
HONOKANAIA*    NOT AVBL
KANELOA*         N/A     70  64  83 S6        30.04
KEALIALALO*    NOT AVBL
LUA MAKIKA*    NOT AVBL
$$

HIZ014>015-121300-
LANAI-

CITY           SKY/WX    TMP DP  RH WIND       PRES   REMARKS
LANAI CITY     MOCLDY    67  63  87 S6        30.02S
LANAI 1*       NOT AVBL
$$

HIZ017>028-121300-
MAUI-

CITY           SKY/WX    TMP DP  RH WIND       PRES   REMARKS
KAHULUI        PTCLDY    70  66  87 S13       29.94F
KAPALUA-W MAUI NOT AVBL
HANA AIRPORT   CLEAR     61  61 100 CALM      29.95S
HANA*            N/A     70 N/A N/A S5          N/A
HALEAKALA SUMM   N/A     39   7  26 SW20        N/A  WCI  30
MAALAEA BAY*   NOT AVBL
HALEAKALA*     NOT AVBL
KAUPO GAP*     NOT AVBL
KULA 1*          N/A    N/A N/A N/A SE12G20     N/A
$$

HIZ023>026-121300-
BIG ISLAND OF HAWAII COAST AND LOWER SLOPES-

CITY           SKY/WX    TMP DP  RH WIND       PRES   REMARKS
KAILUA KONA    CLEAR     70  56  61 E8        29.96F
HILO           CLEAR     65  54  67 SW8       29.96F
HONOKAA*         N/A     61 N/A N/A VRB1        N/A
KAWAIHAE MWT*    N/A     70 N/A N/A S1          N/A
KAWAIHAE*      NOT AVBL
SOUTH POINT*     N/A     63 N/A N/A W6          N/A
UPOLU AIRPORT* NOT AVBL
KAMUELA*       SUNNY     48  46  93 SE7       30.06F
HAKALAU*         N/A    N/A N/A N/A W3G9        N/A
KALOKO-HONOKO* NOT AVBL
PALI 2*          N/A     72  68  88 S6          N/A
KEALAKOMO*       N/A     66  59  77 NW5         N/A
KAUPULEHU*     NOT AVBL
KAPAPALA*        N/A     50  42  73 NW5G10      N/A
LOWER KAHUKU*  NOT AVBL
PUHE CS*       NOT AVBL
PUHO CS*       NOT AVBL
PTA KEAMUKU*     N/A     52  41  66 S12G17      N/A
WAIKOLOA*      NOT AVBL
$$

HIZ027>028-121300-
BIG ISLAND OF HAWAII INTERIOR AND SUMMMITS-

CITY           SKY/WX    TMP DP  RH WIND       PRES   REMARKS
BRADSHAW FIELD CLOUDY    57 -12   6 NW10G20   30.26F
MK VISITOR CEN   N/A     46   0  14 W15         N/A
MAUNA KEA*       N/A     32 -13  14 SW39        N/A  WCI  16
MAUNA LOA*     NOT AVBL
MAUNA LOA 1*   NOT AVBL
PTA KIPUKA*      N/A     39   7  26 VRB7G14     N/A
PTA RANGE 17*    N/A    N/A N/A N/A W2G8        N/A
PTA WEST*        N/A     70  48  46 SE14G20     N/A
NENE CABIN*    NOT AVBL
AHUMOA*        NOT AVBL
PTA PORTABLE*  NOT AVBL
PUU MALI*        N/A     48  39  71 SE3         N/A
$$

HIC003-121300-
NORTHWEST ISLANDS-

CITY           SKY/WX    TMP DP  RH WIND       PRES   REMARKS
MIDWAY ISLAND  MOCLDY    66  54  63 N6        30.16F
MIDWAY NOS*    NOT AVBL
FRENCH FRIGATE NOT AVBL
$$

PHZ110>124-180-121300-
BUOY REPORTS

STATION/POSITION TIME  TEMP    WIND        PRES    WAVE   SWELL
                       AIR SEA DIR/SP/G            HT/PER HT/DIR
                 (UTC) (F)     (DEG/KT/KT) (MB)    (FT/S) (FT/D)
BUOY 51001       1150   73 75  310/ 16/ 19 1012.1F   9/11   7
BUOY 51101       1150   73 75  300/ 17/ 21 1012.4    8/11   5/340
BUOY 51100       NOT AVBL
BUOY 51002       1150   77 78   50/ 10/ 12 1014.6F   8/13   7/360
BUOY 51003       1150   76 78  210/  6/  6 1014.5    5/11   5/330
BUOY 51004       1150   78 78  110/ 12/ 16 1013.6F   8/13   8/340
WAIMEA BAY#      1102      75                N/A     5/12   3/320
MOKAPU POINT#    1134      77                N/A     4/13   2/350
LANAI#           NOT AVBL
BARBERS PT 2#    NOT AVBL
PAUWELA#         1130      78                N/A     6/11   5/340
HILO#            1157      77                N/A     7/11   5/350
KANEOHE BAY#     NOT AVBL
KANEOHE BAY 2#   NOT AVBL
HANALEI#         1152      77                N/A     6/12   3/340
KAHULUI HARBOR   1142   74 77  180/ 14/ 18 1013.6F
HONOLULU HARBOR  1142   76 77  240/  9/ 12 1014.6F
PEARL HARBOR#    1130      78                N/A     3/ 4
KILO NALU        NOT AVBL
HILO HARBOR      1142   69 76  210/  7/ 10 1014.3F
MOKUOLOE         1136   74 76  170/  2/  5 1013.6F
NAWILIWILI       1142   73 78  260/  6/  9 1013.4S
WHOTS BUOY       NOT AVBL
BUOY 51028       NOT AVBL
$$

......................KEY........................................
  SKY/WX - SKY CONDITIONS/PRESENT WEATHER
  TMP    - TEMPERATURE IN FAHRENHEIT
  DWPT   - DEWPOINT IN FAHRENHEIT
  RH     - RELATIVE HUMIDITY IN PERCENT
  WIND   - DIRECTION AND SPEED /MPH FOR ISLANDS...KTS FOR BUOYS/
  PRES   - MEAN SEA LEVEL PRESSURE IN INCHES OF HG
  VSB    - VISIBILITY IN MILES
  HX     - HEAT INDEX
  WCI    - WIND CHILL INDEX
  VRB    - VARIABLE WIND DIRECTION
  N/A    - NOT AVAILABLE




USA.gov is the U.S. government's official web portal to all federal, state and local government web resources and services.